Time,TemperatureF,DewpointF,PressureIn,WindDirection,WindDirectionDegrees,WindSpeedMPH,WindSpeedGustMPH,Humidity,HourlyPrecipIn,Conditions,Clouds,dailyrainin,SoftwareType,DateUTC
2013-03-17 00:00:00,59.9,53.0,30.10,SE,140,0.0,0.0,78,0.00,,OVC,0.00,WeatherDisplay:10.37,2013-03-17 04:00:00,
2013-03-17 00:05:00,59.8,52.9,30.10,SE,140,0.0,0.0,78,0.00,,OVC,0.00,WeatherDisplay:10.37,2013-03-17 04:05:00,
2013-03-17 00:10:00,59.6,53.1,30.10,SE,139,0.0,0.0,79,0.00,,OVC,0.00,WeatherDisplay:10.37,2013-03-17 04:10:00,
2013-03-17 00:15:00,59.5,53.0,30.10,SE,140,0.0,0.0,79,0.00,,OVC,0.00,WeatherDisplay:10.37,2013-03-17 04:15:00,
2013-03-17 00:20:00,59.2,52.7,30.10,SE,139,0.0,0.0,79,0.00,,OVC,0.00,WeatherDisplay:10.37,2013-03-17 04:20:00,
2013-03-17 00:25:00,59.2,53.0,30.10,SE,139,0.0,0.0,80,0.00,,OVC,0.00,WeatherDisplay:10.37,2013-03-17 04:25:00,
2013-03-17 00:30:00,58.9,53.1,30.10,SE,139,0.0,0.0,81,0.00,,OVC,0.00,WeatherDisplay:10.37,2013-03-17 04:30:00,
2013-03-17 00:35:00,58.7,52.9,30.10,SE,139,0.0,0.0,81,0.00,,OVC,0.00,WeatherDisplay:10.37,2013-03-17 04:35:00,
2013-03-17 00:40:00,58.6,52.8,30.10,SE,140,0.0,0.0,81,0.00,,OVC,0.00,WeatherDisplay:10.37,2013-03-17 04:40:00,
2013-03-17 00:45:00,58.3,52.8,30.10,SE,139,0.0,0.0,82,0.00,,OVC,0.00,WeatherDisplay:10.37,2013-03-17 04:45:00,
2013-03-17 00:50:00,58.1,53.0,30.10,SE,139,0.0,0.0,83,0.00,,OVC,0.00,WeatherDisplay:10.37,2013-03-17 04:50:00,
2013-03-17 00:55:00,58.1,53.0,30.10,SE,139,0.0,0.0,83,0.00,,OVC,0.00,WeatherDisplay:10.37,2013-03-17 04:55:00,
2013-03-17 01:00:00,58.0,53.2,30.09,SE,140,0.0,0.0,84,0.00,,OVC,0.00,WeatherDisplay:10.37,2013-03-17 05:00:00,
2013-03-17 01:05:00,57.8,53.0,30.09,SE,140,0.0,0.0,84,0.00,,OVC,0.00,WeatherDisplay:10.37,2013-03-17 05:05:00,
2013-03-17 01:10:00,57.8,53.3,30.09,SE,139,0.0,0.0,85,0.00,,OVC,0.00,WeatherDisplay:10.37,2013-03-17 05:10:00,
2013-03-17 01:15:00,57.6,53.1,30.09,SE,140,0.0,0.0,85,0.00,,OVC,0.00,WeatherDisplay:10.37,2013-03-17 05:15:00,
2013-03-17 01:20:00,57.5,53.0,30.09,SE,139,0.0,0.0,85,0.00,,OVC,0.00,WeatherDisplay:10.37,2013-03-17 05:20:00,
2013-03-17 01:25:00,57.5,53.0,30.09,SE,139,0.0,0.0,85,0.00,,OVC,0.00,WeatherDisplay:10.37,2013-03-17 05:25:00,
2013-03-17 01:30:00,57.3,53.1,30.08,SE,139,0.0,0.0,86,0.00,,OVC,0.00,WeatherDisplay:10.37,2013-03-17 05:30:00,
2013-03-17 01:35:00,57.2,53.0,30.08,SE,139,0.0,0.0,86,0.00,,OVC,0.00,WeatherDisplay:10.37,2013-03-17 05:35:00,
2013-03-17 01:40:00,57.0,52.9,30.08,SE,139,0.0,0.0,86,0.00,,OVC,0.00,WeatherDisplay:10.37,2013-03-17 05:40:00,
2013-03-17 01:45:00,56.9,52.8,30.08,SE,139,0.0,0.0,86,0.00,,OVC,0.00,WeatherDisplay:10.37,2013-03-17 05:45:00,
2013-03-17 01:50:00,56.7,52.6,30.08,SE,139,0.0,0.0,86,0.00,,OVC,0.00,WeatherDisplay:10.37,2013-03-17 05:50:00,
2013-03-17 01:55:00,56.6,52.8,30.08,SE,139,0.0,0.0,87,0.00,,OVC,0.00,WeatherDisplay:10.37,2013-03-17 05:55:00,
2013-03-17 02:00:00,56.5,52.7,30.07,SE,139,0.0,0.0,87,0.00,,OVC,0.00,WeatherDisplay:10.37,2013-03-17 06:00:00,
2013-03-17 02:05:00,56.3,52.5,30.07,SE,139,0.0,0.0,87,0.00,,OVC,0.00,WeatherDisplay:10.37,2013-03-17 06:05:00,
2013-03-17 02:10:00,56.2,52.4,30.07,SE,139,0.0,0.0,87,0.00,,OVC,0.00,WeatherDisplay:10.37,2013-03-17 06:10:00,
2013-03-17 02:15:00,56.0,52.5,30.07,SE,139,0.0,0.0,88,0.00,,OVC,0.00,WeatherDisplay:10.37,2013-03-17 06:15:00,
2013-03-17 02:20:00,56.0,52.5,30.07,SE,140,0.0,0.0,88,0.00,,OVC,0.00,WeatherDisplay:10.37,2013-03-17 06:20:00,
2013-03-17 02:25:00,56.0,52.5,30.07,SE,139,0.0,0.0,88,0.00,,OVC,0.00,WeatherDisplay:10.37,2013-03-17 06:25:00,
2013-03-17 02:30:00,56.0,52.8,30.07,SE,139,0.0,0.0,89,0.00,,OVC,0.00,WeatherDisplay:10.37,2013-03-17 06:30:00,
2013-03-17 02:36:00,56.0,52.8,30.07,SE,139,0.0,0.0,89,0.00,,OVC,0.00,WeatherDisplay:10.37,2013-03-17 06:36:00,
2013-03-17 02:41:00,55.9,52.7,30.07,SE,139,0.0,0.0,89,0.00,,OVC,0.00,WeatherDisplay:10.37,2013-03-17 06:41:00,
2013-03-17 02:46:00,56.0,52.8,30.06,SE,140,0.0,0.0,89,0.00,,OVC,0.00,WeatherDisplay:10.37,2013-03-17 06:46:00,
2013-03-17 02:51:00,56.2,53.0,30.06,SE,139,0.0,0.0,89,0.00,,OVC,0.00,WeatherDisplay:10.37,2013-03-17 06:51:00,
2013-03-17 02:56:00,56.0,52.8,30.06,SE,139,0.0,0.0,89,0.00,,OVC,0.00,WeatherDisplay:10.37,2013-03-17 06:56:00,
2013-03-17 03:01:00,56.0,52.8,30.06,SE,139,0.0,0.0,89,0.00,,OVC,0.00,WeatherDisplay:10.37,2013-03-17 07:01:00,
2013-03-17 03:06:00,55.9,52.7,30.06,SE,139,0.0,0.0,89,0.00,,OVC,0.00,WeatherDisplay:10.37,2013-03-17 07:06:00,
2013-03-17 03:11:00,55.7,52.8,30.06,SE,139,0.0,0.0,90,0.00,,OVC,0.00,WeatherDisplay:10.37,2013-03-17 07:11:00,
2013-03-17 03:16:00,55.7,52.8,30.06,SE,139,0.0,0.0,90,0.00,,OVC,0.00,WeatherDisplay:10.37,2013-03-17 07:16:00,
2013-03-17 03:21:00,55.6,52.7,30.06,SE,139,0.0,0.0,90,0.00,,OVC,0.00,WeatherDisplay:10.37,2013-03-17 07:21:00,
2013-03-17 03:26:00,55.6,52.7,30.06,SE,139,0.0,0.0,90,0.00,,OVC,0.00,WeatherDisplay:10.37,2013-03-17 07:26:00,
2013-03-17 03:31:00,55.7,52.8,30.06,SE,139,0.0,0.0,90,0.00,,OVC,0.00,WeatherDisplay:10.37,2013-03-17 07:31:00,
2013-03-17 03:36:00,55.6,53.0,30.06,SE,139,0.0,0.0,91,0.00,,OVC,0.00,WeatherDisplay:10.37,2013-03-17 07:36:00,
2013-03-17 03:41:00,55.7,53.1,30.06,SE,139,0.0,0.0,91,0.00,,OVC,0.00,WeatherDisplay:10.37,2013-03-17 07:41:00,
2013-03-17 03:46:00,55.9,53.3,30.06,SE,139,0.0,0.0,91,0.00,,OVC,0.00,WeatherDisplay:10.37,2013-03-17 07:46:00,
2013-03-17 03:51:00,55.9,53.3,30.06,SE,139,0.0,0.0,91,0.00,,OVC,0.00,WeatherDisplay:10.37,2013-03-17 07:51:00,
2013-03-17 03:56:00,55.9,53.3,30.06,SE,139,0.0,0.0,91,0.00,,OVC,0.00,WeatherDisplay:10.37,2013-03-17 07:56:00,
2013-03-17 04:01:00,55.7,53.1,30.06,SE,139,0.0,0.0,91,0.00,,OVC,0.00,WeatherDisplay:10.37,2013-03-17 08:01:00,
2013-03-17 04:06:00,55.7,53.4,30.06,SE,139,0.0,0.0,92,0.00,,OVC,0.00,WeatherDisplay:10.37,2013-03-17 08:06:00,
2013-03-17 04:11:00,55.7,53.4,30.06,SE,139,0.0,0.0,92,0.00,,OVC,0.00,WeatherDisplay:10.37,2013-03-17 08:11:00,
2013-03-17 04:16:00,55.7,53.4,30.05,SE,139,0.0,0.0,92,0.00,,OVC,0.00,WeatherDisplay:10.37,2013-03-17 08:16:00,
2013-03-17 04:22:00,55.7,53.4,30.05,SE,139,0.0,0.0,92,0.00,,OVC,0.00,WeatherDisplay:10.37,2013-03-17 08:22:00,
2013-03-17 04:27:00,55.7,53.4,30.05,SE,139,0.0,0.0,92,0.00,,OVC,0.00,WeatherDisplay:10.37,2013-03-17 08:27:00,
2013-03-17 04:32:00,56.0,53.7,30.05,SE,139,0.0,0.0,92,0.00,,OVC,0.00,WeatherDisplay:10.37,2013-03-17 08:32:00,
2013-03-17 04:37:00,56.0,53.7,30.05,SE,139,0.0,0.0,92,0.00,,OVC,0.00,WeatherDisplay:10.37,2013-03-17 08:37:00,
2013-03-17 04:42:00,56.0,53.7,30.05,SE,139,0.0,0.0,92,0.00,,OVC,0.00,WeatherDisplay:10.37,2013-03-17 08:42:00,
2013-03-17 04:47:00,56.0,53.7,30.05,SE,139,0.0,0.0,92,0.00,,OVC,0.00,WeatherDisplay:10.37,2013-03-17 08:47:00,
2013-03-17 04:52:00,56.2,53.9,30.05,SE,139,0.0,0.0,92,0.00,,OVC,0.00,WeatherDisplay:10.37,2013-03-17 08:52:00,
2013-03-17 04:57:00,56.3,54.0,30.05,SE,139,0.0,0.0,92,0.00,,OVC,0.00,WeatherDisplay:10.37,2013-03-17 08:57:00,
2013-03-17 05:02:00,56.5,54.5,30.05,SE,139,0.0,0.0,93,0.00,,OVC,0.00,WeatherDisplay:10.37,2013-03-17 09:02:00,
2013-03-17 05:07:00,56.7,54.7,30.05,SE,139,0.0,0.0,93,0.00,,OVC,0.00,WeatherDisplay:10.37,2013-03-17 09:07:00,
2013-03-17 05:13:00,56.9,54.9,30.05,SE,139,0.0,0.0,93,0.00,,OVC,0.00,WeatherDisplay:10.37,2013-03-17 09:13:00,
2013-03-17 05:18:00,57.0,55.0,30.06,SE,139,0.0,0.0,93,0.00,,OVC,0.00,WeatherDisplay:10.37,2013-03-17 09:18:00,
2013-03-17 05:23:00,57.3,55.3,30.06,SE,139,0.0,0.0,93,0.00,,OVC,0.00,WeatherDisplay:10.37,2013-03-17 09:23:00,
2013-03-17 05:28:00,57.6,55.6,30.06,SE,139,0.0,0.0,93,0.00,,OVC,0.00,WeatherDisplay:10.37,2013-03-17 09:28:00,
2013-03-17 05:33:00,57.8,55.8,30.06,SE,139,0.0,0.0,93,0.00,,OVC,0.00,WeatherDisplay:10.37,2013-03-17 09:33:00,
2013-03-17 05:38:00,57.8,55.8,30.06,SE,139,0.0,0.0,93,0.00,,OVC,0.00,WeatherDisplay:10.37,2013-03-17 09:38:00,
2013-03-17 05:43:00,57.8,55.8,30.06,SE,139,0.0,0.0,93,0.00,,OVC,0.00,WeatherDisplay:10.37,2013-03-17 09:43:00,
2013-03-17 05:48:00,57.8,55.8,30.06,SE,139,0.0,0.0,93,0.00,,OVC,0.00,WeatherDisplay:10.37,2013-03-17 09:48:00,
2013-03-17 05:53:00,57.8,55.8,30.06,SE,139,0.0,0.0,93,0.00,,OVC,0.00,WeatherDisplay:10.37,2013-03-17 09:53:00,
2013-03-17 05:58:00,58.1,56.1,30.06,SE,139,0.0,0.0,93,0.00,,OVC,0.00,WeatherDisplay:10.37,2013-03-17 09:58:00,
2013-03-17 06:03:00,58.1,56.1,30.06,SE,139,0.0,0.0,93,0.00,,OVC,0.00,WeatherDisplay:10.37,2013-03-17 10:03:00,
2013-03-17 06:08:00,58.1,56.1,30.06,SE,139,0.0,0.0,93,0.00,,OVC,0.00,WeatherDisplay:10.37,2013-03-17 10:08:00,
2013-03-17 06:13:00,58.1,56.1,30.06,SE,139,0.0,0.0,93,0.00,,OVC,0.00,WeatherDisplay:10.37,2013-03-17 10:13:00,
2013-03-17 06:18:00,58.3,56.3,30.06,SE,139,0.0,0.0,93,0.00,,OVC,0.00,WeatherDisplay:10.37,2013-03-17 10:18:00,
2013-03-17 06:23:00,58.3,56.3,30.06,SE,139,0.0,0.0,93,0.00,,OVC,0.00,WeatherDisplay:10.37,2013-03-17 10:23:00,
2013-03-17 06:28:00,58.3,56.3,30.06,SE,139,0.0,0.0,93,0.00,,OVC,0.00,WeatherDisplay:10.37,2013-03-17 10:28:00,
2013-03-17 06:33:00,58.3,56.3,30.06,SE,139,0.0,0.0,93,0.00,,OVC,0.00,WeatherDisplay:10.37,2013-03-17 10:33:00,
2013-03-17 06:38:00,58.3,56.3,30.06,SE,139,0.0,0.0,93,0.00,,OVC,0.00,WeatherDisplay:10.37,2013-03-17 10:38:00,
2013-03-17 06:43:00,58.3,56.3,30.06,SE,139,0.0,0.0,93,0.00,,OVC,0.00,WeatherDisplay:10.37,2013-03-17 10:43:00,
2013-03-17 06:48:00,58.3,56.3,30.06,SE,139,0.0,0.0,93,0.00,,OVC,0.00,WeatherDisplay:10.37,2013-03-17 10:48:00,
2013-03-17 06:53:00,58.4,56.4,30.06,SE,139,0.0,0.0,93,0.00,,OVC,0.00,WeatherDisplay:10.37,2013-03-17 10:53:00,
2013-03-17 06:58:00,58.4,56.1,30.06,SE,139,0.0,0.0,92,0.00,,OVC,0.00,WeatherDisplay:10.37,2013-03-17 10:58:00,
2013-03-17 07:03:00,58.4,56.4,30.07,SE,139,0.0,0.0,93,0.00,,OVC,0.00,WeatherDisplay:10.37,2013-03-17 11:03:00,
2013-03-17 07:08:00,58.4,56.1,30.07,SE,139,0.0,0.0,92,0.00,,OVC,0.00,WeatherDisplay:10.37,2013-03-17 11:08:00,
2013-03-17 07:13:00,58.4,56.1,30.07,SE,139,0.0,0.0,92,0.00,,OVC,0.00,WeatherDisplay:10.37,2013-03-17 11:13:00,
2013-03-17 07:18:00,58.6,56.6,30.07,SE,139,0.0,0.0,93,0.00,,OVC,0.00,WeatherDisplay:10.37,2013-03-17 11:18:00,
2013-03-17 07:23:00,58.4,56.1,30.07,SE,139,0.0,0.0,92,0.00,,OVC,0.00,WeatherDisplay:10.37,2013-03-17 11:23:00,
2013-03-17 07:28:00,58.6,56.3,30.07,SE,139,0.0,0.0,92,0.00,,OVC,0.00,WeatherDisplay:10.37,2013-03-17 11:28:00,
2013-03-17 07:33:00,58.4,56.1,30.07,SE,139,0.0,0.0,92,0.00,,OVC,0.00,WeatherDisplay:10.37,2013-03-17 11:33:00,
2013-03-17 07:38:00,58.6,56.3,30.07,SE,139,0.0,0.0,92,0.00,,OVC,0.00,WeatherDisplay:10.37,2013-03-17 11:38:00,
2013-03-17 07:43:00,58.6,56.3,30.07,SE,139,0.0,0.0,92,0.00,,OVC,0.00,WeatherDisplay:10.37,2013-03-17 11:43:00,
2013-03-17 07:48:00,58.6,56.3,30.07,SE,139,0.0,0.0,92,0.00,,OVC,0.00,WeatherDisplay:10.37,2013-03-17 11:48:00,
2013-03-17 07:53:00,58.6,56.3,30.07,SE,139,0.0,0.0,92,0.00,,OVC,0.00,WeatherDisplay:10.37,2013-03-17 11:53:00,
2013-03-17 07:58:00,58.6,56.3,30.07,SE,139,0.0,0.0,92,0.00,,OVC,0.00,WeatherDisplay:10.37,2013-03-17 11:58:00,
2013-03-17 08:03:00,58.7,56.4,30.08,SE,139,0.0,0.0,92,0.00,,OVC,0.00,WeatherDisplay:10.37,2013-03-17 12:03:00,
2013-03-17 08:08:00,58.7,56.4,30.08,SE,139,0.0,0.0,92,0.00,,OVC,0.00,WeatherDisplay:10.37,2013-03-17 12:08:00,
2013-03-17 08:13:00,58.9,56.6,30.08,SE,139,0.0,0.0,92,0.00,,OVC,0.00,WeatherDisplay:10.37,2013-03-17 12:13:00,
2013-03-17 08:18:00,58.9,56.6,30.09,SE,139,0.0,0.0,92,0.00,,OVC,0.00,WeatherDisplay:10.37,2013-03-17 12:18:00,
2013-03-17 08:23:00,59.0,56.7,30.09,SE,139,0.0,0.0,92,0.00,,OVC,0.00,WeatherDisplay:10.37,2013-03-17 12:23:00,
2013-03-17 08:28:00,59.3,57.0,30.09,SE,139,0.0,0.0,92,0.00,,OVC,0.00,WeatherDisplay:10.37,2013-03-17 12:28:00,
2013-03-17 08:33:00,59.6,57.3,30.10,SE,139,0.0,0.0,92,0.00,,OVC,0.00,WeatherDisplay:10.37,2013-03-17 12:33:00,
2013-03-17 08:38:00,59.9,57.6,30.10,SE,139,0.0,0.0,92,0.00,,OVC,0.00,WeatherDisplay:10.37,2013-03-17 12:38:00,
2013-03-17 08:43:00,60.2,57.9,30.10,SE,139,0.0,0.0,92,0.00,,OVC,0.00,WeatherDisplay:10.37,2013-03-17 12:43:00,
2013-03-17 08:48:00,60.7,58.4,30.09,SE,139,0.0,0.0,92,0.00,,OVC,0.00,WeatherDisplay:10.37,2013-03-17 12:48:00,
2013-03-17 08:53:00,61.0,58.4,30.09,SE,139,0.0,0.0,91,0.00,,OVC,0.00,WeatherDisplay:10.37,2013-03-17 12:53:00,
2013-03-17 08:58:00,61.5,58.8,30.09,SE,139,0.0,0.0,91,0.00,,OVC,0.00,WeatherDisplay:10.37,2013-03-17 12:58:00,
2013-03-17 09:03:00,62.0,59.3,30.10,SE,139,0.0,0.0,91,0.00,CLR,OVC,0.00,WeatherDisplay:10.37,2013-03-17 13:03:00,
2013-03-17 09:08:00,62.4,59.4,30.10,SE,139,0.0,0.0,90,0.00,CLR,OVC,0.00,WeatherDisplay:10.37,2013-03-17 13:08:00,
2013-03-17 09:13:00,62.9,59.9,30.10,SE,139,0.0,0.0,90,0.00,CLR,OVC,0.00,WeatherDisplay:10.37,2013-03-17 13:13:00,
2013-03-17 09:19:00,63.5,59.6,30.11,SE,139,0.0,0.0,87,0.00,CLR,OVC,0.00,WeatherDisplay:10.37,2013-03-17 13:19:00,
2013-03-17 09:24:00,64.2,59.6,30.11,SE,139,0.0,0.0,85,0.00,CLR,OVC,0.00,WeatherDisplay:10.37,2013-03-17 13:24:00,
2013-03-17 09:29:00,64.8,59.5,30.11,SE,139,0.0,0.0,83,0.00,CLR,OVC,0.00,WeatherDisplay:10.37,2013-03-17 13:29:00,
2013-03-17 09:34:00,65.5,59.5,30.12,SE,139,0.0,0.0,81,0.00,CLR,OVC,0.00,WeatherDisplay:10.37,2013-03-17 13:34:00,
2013-03-17 09:39:00,66.0,59.3,30.12,SE,139,0.0,0.0,79,0.00,CLR,OVC,0.00,WeatherDisplay:10.37,2013-03-17 13:39:00,
2013-03-17 09:44:00,66.4,59.3,30.12,SE,139,0.0,0.0,78,0.00,CLR,OVC,0.00,WeatherDisplay:10.37,2013-03-17 13:44:00,
2013-03-17 09:49:00,67.1,58.9,30.12,SE,139,0.0,0.0,75,0.00,CLR,OVC,0.00,WeatherDisplay:10.37,2013-03-17 13:49:00,
2013-03-17 09:54:00,67.6,58.6,30.12,SE,139,0.0,0.0,73,0.00,CLR,OVC,0.00,WeatherDisplay:10.37,2013-03-17 13:54:00,
2013-03-17 09:59:00,68.1,57.9,30.12,SE,139,0.0,0.0,70,0.00,CLR,OVC,0.00,WeatherDisplay:10.37,2013-03-17 13:59:00,
2013-03-17 10:04:00,68.9,57.9,30.12,SE,139,0.0,0.0,68,0.00,CLR,OVC,0.00,WeatherDisplay:10.37,2013-03-17 14:04:00,
2013-03-17 10:09:00,69.4,57.5,30.12,SE,139,0.0,0.0,66,0.00,CLR,OVC,0.00,WeatherDisplay:10.37,2013-03-17 14:09:00,
2013-03-17 10:14:00,70.3,58.0,30.12,SE,139,0.0,0.0,65,0.00,CLR,OVC,0.00,WeatherDisplay:10.37,2013-03-17 14:14:00,
2013-03-17 10:19:00,71.1,58.3,30.11,SE,138,0.0,0.0,64,0.00,CLR,OVC,0.00,WeatherDisplay:10.37,2013-03-17 14:19:00,
2013-03-17 10:24:00,72.0,58.7,30.11,SE,136,0.0,0.0,63,0.00,CLR,OVC,0.00,WeatherDisplay:10.37,2013-03-17 14:24:00,
2013-03-17 10:29:00,72.1,57.9,30.11,SE,134,0.0,0.0,61,0.00,CLR,OVC,0.00,WeatherDisplay:10.37,2013-03-17 14:29:00,
2013-03-17 10:34:00,72.1,57.4,30.11,SE,131,0.0,0.0,60,0.00,CLR,OVC,0.00,WeatherDisplay:10.37,2013-03-17 14:34:00,
2013-03-17 10:39:00,72.1,57.4,30.11,SE,131,0.0,0.0,60,0.00,CLR,OVC,0.00,WeatherDisplay:10.37,2013-03-17 14:39:00,
2013-03-17 10:44:00,72.3,58.1,30.10,SE,136,11.5,11.5,61,0.00,CLR,OVC,0.00,WeatherDisplay:10.37,2013-03-17 14:44:00,
2013-03-17 10:49:00,72.3,57.6,30.10,SSE,150,26.5,26.5,60,0.00,CLR,OVC,0.00,WeatherDisplay:10.37,2013-03-17 14:49:00,
2013-03-17 10:54:00,72.1,57.4,30.10,SE,136,17.3,17.3,60,0.00,CLR,OVC,0.00,WeatherDisplay:10.37,2013-03-17 14:54:00,
2013-03-17 10:59:00,72.3,57.2,30.10,SE,146,11.5,11.5,59,0.00,CLR,OVC,0.00,WeatherDisplay:10.37,2013-03-17 14:59:00,
2013-03-17 11:04:00,72.7,58.0,30.10,ESE,119,10.4,10.4,60,0.00,,OVC,0.00,WeatherDisplay:10.37,2013-03-17 15:04:00,
2013-03-17 11:09:00,73.0,57.8,30.10,SSE,153,19.6,19.6,59,0.00,,OVC,0.00,WeatherDisplay:10.37,2013-03-17 15:09:00,
2013-03-17 11:14:00,73.2,57.5,30.10,SSE,149,16.1,16.1,58,0.00,,OVC,0.00,WeatherDisplay:10.37,2013-03-17 15:14:00,
2013-03-17 11:19:00,73.7,55.5,30.10,SSE,153,24.2,24.2,53,0.00,,OVC,0.00,WeatherDisplay:10.37,2013-03-17 15:19:00,
2013-03-17 11:24:00,73.3,55.6,30.10,South,170,12.7,12.7,54,0.00,,OVC,0.00,WeatherDisplay:10.37,2013-03-17 15:24:00,
2013-03-17 11:29:00,73.3,55.1,30.10,South,184,27.6,27.6,53,0.00,,OVC,0.00,WeatherDisplay:10.37,2013-03-17 15:29:00,
2013-03-17 11:34:00,74.0,57.3,30.10,ESE,120,23.0,23.0,56,0.00,,OVC,0.00,WeatherDisplay:10.37,2013-03-17 15:34:00,
2013-03-17 11:39:00,74.0,58.3,30.10,SE,143,2.3,3.3,58,0.00,,OVC,0.00,WeatherDisplay:10.37,2013-03-17 15:39:00,
2013-03-17 11:44:00,73.9,58.7,30.10,ESE,107,14.0,14.0,59,0.00,,OVC,0.00,WeatherDisplay:10.37,2013-03-17 15:44:00,
2013-03-17 11:49:00,73.5,58.3,30.10,SE,126,1.2,1.2,59,0.00,,OVC,0.00,WeatherDisplay:10.37,2013-03-17 15:49:00,
2013-03-17 11:54:00,73.9,58.2,30.10,NE,44,16.1,16.1,58,0.00,,OVC,0.00,WeatherDisplay:10.37,2013-03-17 15:54:00,
2013-03-17 11:59:00,74.2,57.5,30.10,SE,137,29.9,29.9,56,0.00,,OVC,0.00,WeatherDisplay:10.37,2013-03-17 15:59:00,
2013-03-17 12:04:00,74.7,58.0,30.10,SSE,159,27.6,27.6,56,0.00,,OVC,0.00,WeatherDisplay:10.37,2013-03-17 16:04:00,
2013-03-17 12:09:00,75.1,57.3,30.10,ESE,118,8.1,8.1,54,0.00,,OVC,0.00,WeatherDisplay:10.37,2013-03-17 16:09:00,
2013-03-17 12:14:00,74.7,56.9,30.10,SE,145,17.3,17.3,54,0.00,,OVC,0.00,WeatherDisplay:10.37,2013-03-17 16:14:00,
2013-03-17 12:19:00,74.6,56.9,30.10,SSE,148,19.6,19.6,54,0.00,,OVC,0.00,WeatherDisplay:10.37,2013-03-17 16:19:00,
2013-03-17 12:24:00,74.4,56.2,30.10,SSE,154,29.9,29.9,53,0.00,,OVC,0.00,WeatherDisplay:10.37,2013-03-17 16:24:00,
2013-03-17 12:29:00,74.4,57.2,30.10,SSE,160,15.0,15.0,55,0.00,,OVC,0.00,WeatherDisplay:10.37,2013-03-17 16:29:00,
2013-03-17 12:34:00,74.7,56.4,30.10,SE,132,28.8,28.8,53,0.00,,OVC,0.00,WeatherDisplay:10.37,2013-03-17 16:34:00,
2013-03-17 12:39:00,74.7,58.0,30.10,SSE,147,25.0,25.0,56,0.00,,OVC,0.00,WeatherDisplay:10.37,2013-03-17 16:39:00,
2013-03-17 12:44:00,74.7,58.0,30.09,SE,132,20.7,20.7,56,0.00,,OVC,0.00,WeatherDisplay:10.37,2013-03-17 16:44:00,
2013-03-17 12:49:00,74.6,58.4,30.09,SE,140,16.1,16.1,57,0.00,,OVC,0.00,WeatherDisplay:10.37,2013-03-17 16:49:00,
2013-03-17 12:54:00,73.9,57.2,30.09,SE,142,26.5,26.5,56,0.00,,OVC,0.00,WeatherDisplay:10.37,2013-03-17 16:54:00,
2013-03-17 12:59:00,73.9,57.7,30.09,SSE,153,27.6,27.6,57,0.00,,OVC,0.00,WeatherDisplay:10.37,2013-03-17 16:59:00,
2013-03-17 13:04:00,73.5,57.8,30.09,SE,140,20.7,20.7,58,0.00,,OVC,0.00,WeatherDisplay:10.37,2013-03-17 17:04:00,
2013-03-17 13:09:00,73.9,58.2,30.09,ESE,115,23.0,23.0,58,0.00,,OVC,0.00,WeatherDisplay:10.37,2013-03-17 17:09:00,
2013-03-17 13:14:00,74.2,58.0,30.09,ESE,102,1.2,1.2,57,0.00,,OVC,0.00,WeatherDisplay:10.37,2013-03-17 17:14:00,
2013-03-17 13:19:00,74.6,57.9,30.09,ESE,113,24.0,24.0,56,0.00,,OVC,0.00,WeatherDisplay:10.37,2013-03-17 17:19:00,
2013-03-17 13:24:00,73.7,57.0,30.09,SE,134,20.7,20.7,56,0.00,,OVC,0.00,WeatherDisplay:10.37,2013-03-17 17:24:00,
2013-03-17 13:29:00,73.7,56.0,30.09,SE,138,24.2,24.2,54,0.00,,OVC,0.00,WeatherDisplay:10.37,2013-03-17 17:29:00,
2013-03-17 13:34:00,73.9,57.2,30.09,SE,136,3.5,3.5,56,0.00,,OVC,0.00,WeatherDisplay:10.37,2013-03-17 17:34:00,
2013-03-17 13:39:00,74.4,56.7,30.09,SE,132,16.1,16.1,54,0.00,,OVC,0.00,WeatherDisplay:10.37,2013-03-17 17:39:00,
2013-03-17 13:44:00,74.2,56.0,30.08,SSE,154,34.5,34.5,53,0.00,,OVC,0.00,WeatherDisplay:10.37,2013-03-17 17:44:00,
2013-03-17 13:49:00,74.4,56.2,30.08,South,178,29.9,29.9,53,0.00,,OVC,0.00,WeatherDisplay:10.37,2013-03-17 17:49:00,
2013-03-17 13:54:00,74.4,56.2,30.08,ENE,65,18.4,18.4,53,0.00,,OVC,0.00,WeatherDisplay:10.37,2013-03-17 17:54:00,
2013-03-17 13:59:00,74.9,56.6,30.07,SE,141,10.4,10.4,53,0.00,,OVC,0.00,WeatherDisplay:10.37,2013-03-17 17:59:00,
2013-03-17 14:04:00,75.1,57.3,30.07,SSE,159,29.9,29.9,54,0.00,,OVC,0.00,WeatherDisplay:10.37,2013-03-17 18:04:00,
2013-03-17 14:09:00,75.1,56.8,30.07,East,86,13.8,13.8,53,0.00,,OVC,0.00,WeatherDisplay:10.37,2013-03-17 18:09:00,
2013-03-17 14:14:00,75.3,57.0,30.07,SSE,151,19.6,19.6,53,0.00,,OVC,0.00,WeatherDisplay:10.37,2013-03-17 18:14:00,
2013-03-17 14:19:00,75.3,57.0,30.07,SE,124,11.5,11.5,53,0.00,,OVC,0.00,WeatherDisplay:10.37,2013-03-17 18:19:00,
2013-03-17 14:24:00,75.1,56.3,30.07,SE,135,28.8,28.8,52,0.00,,OVC,0.00,WeatherDisplay:10.37,2013-03-17 18:24:00,
2013-03-17 14:29:00,75.1,56.8,30.06,SSW,196,19.6,19.6,53,0.00,,OVC,0.00,WeatherDisplay:10.37,2013-03-17 18:29:00,
2013-03-17 14:35:00,75.3,56.5,30.06,SSE,163,27.6,27.6,52,0.00,,OVC,0.00,WeatherDisplay:10.37,2013-03-17 18:35:00,
2013-03-17 14:40:00,74.9,56.6,30.06,NE,51,1.2,1.2,53,0.00,,OVC,0.00,WeatherDisplay:10.37,2013-03-17 18:40:00,
2013-03-17 14:45:00,75.1,56.3,30.05,SE,142,28.8,28.8,52,0.00,,OVC,0.00,WeatherDisplay:10.37,2013-03-17 18:45:00,
2013-03-17 14:50:00,75.3,55.9,30.05,SSE,155,27.6,27.6,51,0.00,,OVC,0.00,WeatherDisplay:10.37,2013-03-17 18:50:00,
2013-03-17 14:55:00,75.8,58.0,30.05,SSE,149,25.3,25.3,54,0.00,,OVC,0.00,WeatherDisplay:10.37,2013-03-17 18:55:00,
2013-03-17 15:00:00,75.6,57.3,30.04,SE,137,15.0,15.0,53,0.00,,OVC,0.00,WeatherDisplay:10.37,2013-03-17 19:00:00,
2013-03-17 15:05:00,75.3,56.5,30.04,SE,139,23.0,23.0,52,0.00,,OVC,0.00,WeatherDisplay:10.37,2013-03-17 19:05:00,
2013-03-17 15:10:00,75.6,57.3,30.04,South,173,18.4,18.4,53,0.00,,OVC,0.00,WeatherDisplay:10.37,2013-03-17 19:10:00,
2013-03-17 15:15:00,76.1,57.2,30.03,ESE,117,19.6,19.6,52,0.00,,OVC,0.00,WeatherDisplay:10.37,2013-03-17 19:15:00,
2013-03-17 15:20:00,76.1,57.2,30.03,East,90,1.2,1.2,52,0.00,,OVC,0.00,WeatherDisplay:10.37,2013-03-17 19:20:00,
2013-03-17 15:25:00,75.8,56.4,30.03,SSE,147,11.0,11.0,51,0.00,,OVC,0.00,WeatherDisplay:10.37,2013-03-17 19:25:00,
2013-03-17 15:30:00,75.8,57.4,30.02,SE,142,18.4,18.4,53,0.00,,OVC,0.00,WeatherDisplay:10.37,2013-03-17 19:30:00,
2013-03-17 15:35:00,74.7,55.9,30.02,SE,143,13.8,13.8,52,0.00,,OVC,0.00,WeatherDisplay:10.37,2013-03-17 19:35:00,
2013-03-17 15:40:00,74.9,56.6,30.02,SSE,154,5.8,5.8,53,0.00,,OVC,0.00,WeatherDisplay:10.37,2013-03-17 19:40:00,
2013-03-17 15:45:00,75.1,56.8,30.01,ESE,121,18.0,18.0,53,0.00,,OVC,0.00,WeatherDisplay:10.37,2013-03-17 19:45:00,
2013-03-17 15:50:00,74.9,57.1,30.01,SE,135,15.0,15.0,54,0.00,,OVC,0.00,WeatherDisplay:10.37,2013-03-17 19:50:00,
2013-03-17 15:55:00,74.9,57.6,30.01,South,171,29.9,29.9,55,0.00,,OVC,0.00,WeatherDisplay:10.37,2013-03-17 19:55:00,
2013-03-17 16:00:00,75.1,58.3,30.03,SSE,147,20.7,20.7,56,0.00,,OVC,0.00,WeatherDisplay:10.37,2013-03-17 20:00:00,
2013-03-17 16:05:00,74.7,58.5,30.03,SE,139,16.1,16.1,57,0.00,,OVC,0.00,WeatherDisplay:10.37,2013-03-17 20:05:00,
2013-03-17 16:10:00,74.9,58.1,30.03,SE,141,15.0,15.0,56,0.00,,OVC,0.00,WeatherDisplay:10.37,2013-03-17 20:10:00,
2013-03-17 16:15:00,75.8,58.5,30.02,SE,124,3.5,3.5,55,0.00,,OVC,0.00,WeatherDisplay:10.37,2013-03-17 20:15:00,
2013-03-17 16:20:00,76.0,59.2,30.02,SE,144,23.0,23.0,56,0.00,,OVC,0.00,WeatherDisplay:10.37,2013-03-17 20:20:00,
2013-03-17 16:25:00,75.8,58.5,30.02,ESE,123,19.6,19.6,55,0.00,,OVC,0.00,WeatherDisplay:10.37,2013-03-17 20:25:00,
2013-03-17 16:30:00,75.4,58.1,30.02,SE,144,9.2,9.2,55,0.00,,OVC,0.00,WeatherDisplay:10.37,2013-03-17 20:30:00,
2013-03-17 16:35:00,74.9,58.1,30.02,SE,146,13.0,13.0,56,0.00,,OVC,0.00,WeatherDisplay:10.37,2013-03-17 20:35:00,
2013-03-17 16:40:00,74.7,58.0,30.02,SE,137,15.0,15.0,56,0.00,,OVC,0.00,WeatherDisplay:10.37,2013-03-17 20:40:00,
2013-03-17 16:45:00,74.6,57.9,30.01,SE,142,13.8,13.8,56,0.00,,OVC,0.00,WeatherDisplay:10.37,2013-03-17 20:45:00,
2013-03-17 16:50:00,74.2,58.0,30.01,ESE,118,12.7,12.7,57,0.00,,OVC,0.00,WeatherDisplay:10.37,2013-03-17 20:50:00,
2013-03-17 16:55:00,74.2,58.0,30.01,SSE,153,10.4,10.4,57,0.00,,OVC,0.00,WeatherDisplay:10.37,2013-03-17 20:55:00,
2013-03-17 17:00:00,74.4,58.2,30.01,SSE,157,3.5,3.5,57,0.00,,OVC,0.00,WeatherDisplay:10.37,2013-03-17 21:00:00,
2013-03-17 17:05:00,74.7,58.0,30.01,SE,141,2.0,2.0,56,0.00,,OVC,0.00,WeatherDisplay:10.37,2013-03-17 21:05:00,
2013-03-17 17:10:00,74.9,58.1,30.01,ESE,116,1.2,1.2,56,0.00,,OVC,0.00,WeatherDisplay:10.37,2013-03-17 21:10:00,
2013-03-17 17:15:00,74.4,57.2,30.01,SSE,148,18.4,18.4,55,0.00,,OVC,0.00,WeatherDisplay:10.37,2013-03-17 21:15:00,
2013-03-17 17:20:00,73.7,57.0,30.01,SE,141,21.9,21.9,56,0.00,,OVC,0.00,WeatherDisplay:10.37,2013-03-17 21:20:00,
2013-03-17 17:25:00,73.5,57.3,30.01,SE,138,18.4,18.4,57,0.00,,OVC,0.00,WeatherDisplay:10.37,2013-03-17 21:25:00,
2013-03-17 17:30:00,73.5,58.3,30.02,SE,136,8.1,8.1,59,0.00,,OVC,0.00,WeatherDisplay:10.37,2013-03-17 21:30:00,
2013-03-17 17:35:00,73.5,57.8,30.02,SE,130,11.5,11.5,58,0.00,,OVC,0.00,WeatherDisplay:10.37,2013-03-17 21:35:00,
2013-03-17 17:40:00,73.5,57.8,30.02,SE,140,22.0,22.0,58,0.00,,OVC,0.00,WeatherDisplay:10.37,2013-03-17 21:40:00,
2013-03-17 17:45:00,73.5,57.8,30.02,SE,128,11.5,11.5,58,0.00,,OVC,0.00,WeatherDisplay:10.37,2013-03-17 21:45:00,
2013-03-17 17:50:00,73.7,57.5,30.02,SE,140,19.6,19.6,57,0.00,,OVC,0.00,WeatherDisplay:10.37,2013-03-17 21:50:00,
2013-03-17 17:55:00,73.9,57.7,30.02,SSW,201,10.4,10.4,57,0.00,,OVC,0.00,WeatherDisplay:10.37,2013-03-17 21:55:00,
2013-03-17 18:00:00,74.0,57.3,30.03,SE,142,16.1,16.1,56,0.00,,OVC,0.00,WeatherDisplay:10.37,2013-03-17 22:00:00,
2013-03-17 18:05:00,73.7,57.5,30.03,SE,137,13.8,13.8,57,0.00,,OVC,0.00,WeatherDisplay:10.37,2013-03-17 22:05:00,
2013-03-17 18:10:00,73.5,58.3,30.03,SSE,148,11.5,11.5,59,0.00,,OVC,0.00,WeatherDisplay:10.37,2013-03-17 22:10:00,
2013-03-17 18:15:00,73.2,58.0,30.03,SE,146,14.0,14.0,59,0.00,,OVC,0.00,WeatherDisplay:10.37,2013-03-17 22:15:00,
2013-03-17 18:20:00,73.0,58.3,30.03,SE,143,12.7,12.7,60,0.00,,OVC,0.00,WeatherDisplay:10.37,2013-03-17 22:20:00,
2013-03-17 18:25:00,72.8,58.1,30.03,SSE,151,21.9,21.9,60,0.00,,OVC,0.00,WeatherDisplay:10.37,2013-03-17 22:25:00,
2013-03-17 18:30:00,72.8,58.6,30.02,SE,141,17.3,17.3,61,0.00,,OVC,0.00,WeatherDisplay:10.37,2013-03-17 22:30:00,
2013-03-17 18:35:00,72.8,58.6,30.02,SSE,147,18.4,18.4,61,0.00,,OVC,0.00,WeatherDisplay:10.37,2013-03-17 22:35:00,
2013-03-17 18:40:00,72.7,58.5,30.02,SE,127,12.7,12.7,61,0.00,,OVC,0.00,WeatherDisplay:10.37,2013-03-17 22:40:00,
2013-03-17 18:45:00,72.5,58.3,30.01,SE,130,9.2,9.2,61,0.00,,OVC,0.00,WeatherDisplay:10.37,2013-03-17 22:45:00,
2013-03-17 18:50:00,72.3,57.6,30.01,SE,142,6.9,6.9,60,0.00,,OVC,0.00,WeatherDisplay:10.37,2013-03-17 22:50:00,
2013-03-17 18:55:00,72.3,57.6,30.01,SE,136,21.9,21.9,60,0.00,,OVC,0.00,WeatherDisplay:10.37,2013-03-17 22:55:00,
2013-03-17 19:00:00,72.1,57.0,30.01,SE,134,20.0,20.0,59,0.00,,OVC,0.00,WeatherDisplay:10.37,2013-03-17 23:00:00,
2013-03-17 19:05:00,72.0,56.9,30.01,SE,138,19.6,19.6,59,0.00,,OVC,0.00,WeatherDisplay:10.37,2013-03-17 23:05:00,
2013-03-17 19:10:00,72.0,57.4,30.01,SSE,151,18.4,18.4,60,0.00,,OVC,0.00,WeatherDisplay:10.37,2013-03-17 23:10:00,
2013-03-17 19:15:00,71.8,57.2,30.01,SE,142,10.4,10.4,60,0.00,,OVC,0.00,WeatherDisplay:10.37,2013-03-17 23:15:00,
2013-03-17 19:20:00,71.8,57.2,30.01,SE,130,6.9,0.0,60,0.00,,OVC,0.00,WeatherDisplay:10.37,2013-03-17 23:20:00,
2013-03-17 19:26:00,71.6,57.4,30.01,SSE,153,8.1,8.1,61,0.00,,OVC,0.00,WeatherDisplay:10.37,2013-03-17 23:26:00,
2013-03-17 19:31:00,71.5,57.8,30.01,SE,138,24.2,24.2,62,0.00,,OVC,0.00,WeatherDisplay:10.37,2013-03-17 23:31:00,
2013-03-17 19:36:00,71.5,57.8,30.01,SE,144,12.7,12.7,62,0.00,,OVC,0.00,WeatherDisplay:10.37,2013-03-17 23:36:00,
2013-03-17 19:41:00,71.3,57.6,30.01,SE,131,21.0,21.0,62,0.00,,OVC,0.00,WeatherDisplay:10.37,2013-03-17 23:41:00,
2013-03-17 19:46:00,71.3,57.2,30.00,SSE,158,16.1,16.1,61,0.00,,OVC,0.00,WeatherDisplay:10.37,2013-03-17 23:46:00,
2013-03-17 19:51:00,71.3,56.7,30.00,SE,136,5.8,5.8,60,0.00,,OVC,0.00,WeatherDisplay:10.37,2013-03-17 23:51:00,
2013-03-17 19:56:00,71.3,56.7,30.00,SE,143,5.8,5.8,60,0.00,,OVC,0.00,WeatherDisplay:10.37,2013-03-17 23:56:00,
2013-03-17 20:01:00,71.3,56.7,30.02,SE,143,7.0,7.0,60,0.00,,OVC,0.00,WeatherDisplay:10.37,2013-03-18 00:01:00,
2013-03-17 20:06:00,71.3,56.7,30.02,SE,142,0.0,0.0,60,0.00,,OVC,0.00,WeatherDisplay:10.37,2013-03-18 00:06:00,
2013-03-17 20:11:00,71.1,56.5,30.02,SE,143,0.0,0.0,60,0.00,,OVC,0.00,WeatherDisplay:10.37,2013-03-18 00:11:00,
2013-03-17 20:16:00,71.1,56.5,30.02,SE,143,0.0,0.0,60,0.00,,OVC,0.00,WeatherDisplay:10.37,2013-03-18 00:16:00,
2013-03-17 20:21:00,71.1,57.0,30.02,SE,146,0.0,0.0,61,0.00,,OVC,0.00,WeatherDisplay:10.37,2013-03-18 00:21:00,
2013-03-17 20:26:00,71.1,57.0,30.02,SSE,148,0.0,0.0,61,0.00,,OVC,0.00,WeatherDisplay:10.37,2013-03-18 00:26:00,
2013-03-17 20:31:00,70.9,56.8,30.02,SSE,148,0.0,0.0,61,0.00,,OVC,0.00,WeatherDisplay:10.37,2013-03-18 00:31:00,
2013-03-17 20:36:00,70.9,56.8,30.02,SSE,148,0.0,0.0,61,0.00,,OVC,0.00,WeatherDisplay:10.37,2013-03-18 00:36:00,
2013-03-17 20:42:00,70.8,57.1,30.02,SSE,148,0.0,0.0,62,0.00,,OVC,0.00,WeatherDisplay:10.37,2013-03-18 00:42:00,
2013-03-17 20:47:00,70.6,57.4,30.03,SSE,148,0.0,0.0,63,0.00,,OVC,0.00,WeatherDisplay:10.37,2013-03-18 00:47:00,
2013-03-17 20:52:00,70.4,57.2,30.03,SSE,148,0.0,0.0,63,0.00,,OVC,0.00,WeatherDisplay:10.37,2013-03-18 00:52:00,
2013-03-17 20:57:00,70.3,57.5,30.03,SSE,148,0.0,0.0,64,0.00,,OVC,0.00,WeatherDisplay:10.37,2013-03-18 00:57:00,
2013-03-17 21:02:00,70.1,57.8,30.03,SSE,148,0.0,0.0,65,0.00,,OVC,0.00,WeatherDisplay:10.37,2013-03-18 01:02:00,
2013-03-17 21:07:00,69.9,57.2,30.03,SSE,148,0.0,0.0,64,0.00,,OVC,0.00,WeatherDisplay:10.37,2013-03-18 01:07:00,
2013-03-17 21:12:00,69.9,57.2,30.03,SSE,148,0.0,0.0,64,0.00,,OVC,0.00,WeatherDisplay:10.37,2013-03-18 01:12:00,
2013-03-17 21:17:00,69.8,57.5,30.03,SSE,148,0.0,0.0,65,0.00,,OVC,0.00,WeatherDisplay:10.37,2013-03-18 01:17:00,
2013-03-17 21:22:00,69.8,57.5,30.03,SSE,148,0.0,0.0,65,0.00,,OVC,0.00,WeatherDisplay:10.37,2013-03-18 01:22:00,
2013-03-17 21:27:00,69.8,57.5,30.03,SSE,148,0.0,0.0,65,0.00,,OVC,0.00,WeatherDisplay:10.37,2013-03-18 01:27:00,
2013-03-17 21:32:00,69.6,57.7,30.03,SSE,148,0.0,0.0,66,0.00,,OVC,0.00,WeatherDisplay:10.37,2013-03-18 01:32:00,
2013-03-17 21:37:00,69.6,57.7,30.03,SSE,148,0.0,0.0,66,0.00,,OVC,0.00,WeatherDisplay:10.37,2013-03-18 01:37:00,
2013-03-17 21:43:00,69.8,57.9,30.03,SSE,148,0.0,0.0,66,0.00,,OVC,0.00,WeatherDisplay:10.37,2013-03-18 01:43:00,
2013-03-17 21:48:00,69.8,57.9,30.03,SSE,148,0.0,0.0,66,0.00,,OVC,0.00,WeatherDisplay:10.37,2013-03-18 01:48:00,
2013-03-17 21:53:00,69.8,57.9,30.03,SSE,148,0.0,0.0,66,0.00,,OVC,0.00,WeatherDisplay:10.37,2013-03-18 01:53:00,
2013-03-17 21:58:00,69.8,57.9,30.03,SSE,148,0.0,0.0,66,0.00,,OVC,0.00,WeatherDisplay:10.37,2013-03-18 01:58:00,
2013-03-17 22:03:00,69.9,58.0,30.04,SSE,148,0.0,0.0,66,0.00,,OVC,0.00,WeatherDisplay:10.37,2013-03-18 02:03:00,
2013-03-17 22:08:00,70.1,58.2,30.04,SSE,148,0.0,0.0,66,0.00,,OVC,0.00,WeatherDisplay:10.37,2013-03-18 02:08:00,
2013-03-17 22:13:00,70.1,58.2,30.04,SSE,148,0.0,0.0,66,0.00,,OVC,0.00,WeatherDisplay:10.37,2013-03-18 02:13:00,
2013-03-17 22:18:00,70.1,58.6,30.04,SSE,148,0.0,0.0,67,0.00,,OVC,0.00,WeatherDisplay:10.37,2013-03-18 02:18:00,
2013-03-17 22:23:00,69.9,58.9,30.04,SSE,148,0.0,0.0,68,0.00,,OVC,0.00,WeatherDisplay:10.37,2013-03-18 02:23:00,
2013-03-17 22:28:00,69.9,59.3,30.04,SSE,148,0.0,0.0,69,0.00,,OVC,0.00,WeatherDisplay:10.37,2013-03-18 02:28:00,
2013-03-17 22:33:00,69.9,59.7,30.04,SSE,147,0.0,0.0,70,0.00,,OVC,0.00,WeatherDisplay:10.37,2013-03-18 02:33:00,
2013-03-17 22:38:00,69.9,60.1,30.04,SE,146,0.0,0.0,71,0.00,,OVC,0.00,WeatherDisplay:10.37,2013-03-18 02:38:00,
2013-03-17 22:43:00,69.9,60.1,30.04,SE,146,0.0,0.0,71,0.00,,OVC,0.00,WeatherDisplay:10.37,2013-03-18 02:43:00,
2013-03-17 22:48:00,69.9,60.1,30.04,SE,146,0.0,0.0,71,0.00,,OVC,0.00,WeatherDisplay:10.37,2013-03-18 02:48:00,
2013-03-17 22:53:00,69.9,60.1,30.04,SE,146,0.0,0.0,71,0.00,,OVC,0.00,WeatherDisplay:10.37,2013-03-18 02:53:00,
2013-03-17 22:58:00,69.8,60.0,30.04,SE,146,0.0,0.0,71,0.00,,OVC,0.00,WeatherDisplay:10.37,2013-03-18 02:58:00,
2013-03-17 23:03:00,69.4,59.6,30.05,SE,146,0.0,0.0,71,0.00,,OVC,0.00,WeatherDisplay:10.37,2013-03-18 03:03:00,
2013-03-17 23:08:00,69.3,59.9,30.05,SE,146,0.0,0.0,72,0.00,,OVC,0.00,WeatherDisplay:10.37,2013-03-18 03:08:00,
2013-03-17 23:13:00,68.9,59.9,30.05,SE,146,0.0,0.0,73,0.00,,OVC,0.00,WeatherDisplay:10.37,2013-03-18 03:13:00,
2013-03-17 23:18:00,68.8,59.8,30.06,SE,146,0.0,0.0,73,0.00,,OVC,0.00,WeatherDisplay:10.37,2013-03-18 03:18:00,
2013-03-17 23:23:00,68.6,60.0,30.06,SE,146,0.0,0.0,74,0.00,,OVC,0.00,WeatherDisplay:10.37,2013-03-18 03:23:00,
2013-03-17 23:28:00,68.3,59.7,30.06,SSE,147,0.0,0.0,74,0.00,,OVC,0.00,WeatherDisplay:10.37,2013-03-18 03:28:00,
2013-03-17 23:33:00,68.1,59.9,30.05,SSE,147,0.0,0.0,75,0.00,,OVC,0.00,WeatherDisplay:10.37,2013-03-18 03:33:00,
2013-03-17 23:38:00,67.9,59.7,30.05,SE,146,0.0,0.0,75,0.00,,OVC,0.00,WeatherDisplay:10.37,2013-03-18 03:38:00,
2013-03-17 23:43:00,67.6,59.8,30.05,SSE,147,0.0,0.0,76,0.00,,OVC,0.00,WeatherDisplay:10.37,2013-03-18 03:43:00,
2013-03-17 23:48:00,67.3,59.5,30.05,SE,146,0.0,0.0,76,0.00,,OVC,0.00,WeatherDisplay:10.37,2013-03-18 03:48:00,
2013-03-17 23:53:00,67.1,59.6,30.05,SSE,147,0.0,0.0,77,0.00,,OVC,0.00,WeatherDisplay:10.37,2013-03-18 03:53:00,
2013-03-17 23:58:00,66.8,59.4,30.05,SSE,147,0.0,0.0,77,0.00,,OVC,0.00,WeatherDisplay:10.37,2013-03-18 03:58:00,